This demonstration page uses our WeatherBlox Daily Observations layout. Learn more.

Left ArrowRight Arrow

39.92423, -83.80882

Hourly Observations for June 14, 2022

Temp ( °F °C ) Dew Point ( °F °C ) Humidity (%) Winds ( mph kmh ) Pressure ( in mb ) Visibility ( mi km ) Precip ( " mm )
12:22 am 00:22 Partly Cloudy 73 23 N/A N/A NNE 15 24 29.99 1016 10 16 0.00 0.00
12:56 am 00:56 Cloudy 70 21.1 70 21.1 100 100 NE 8 13 29.98 1015 10 16 0.00 0.00
1:56 am 01:56 Clear 70 21 N/A N/A S 8 13 29.88 1012 10 16 0.00 0.00
2:56 am 02:56 Clear 70 21 N/A N/A S 8 13 29.91 1013 10 16 0.00 0.00
3:56 am 03:56 Clear 70 21 N/A N/A E 9 15 29.95 1014 10 16 0.00 0.00
4:56 am 04:56 Mostly Clear 70 21 N/A N/A NE 13 20 29.97 1015 10 16 0.00 0.00
5:11 am 05:11 Mostly Cloudy 70 21 N/A N/A ENE 12 19 29.96 1014 10 16 0.00 0.00
5:56 am 05:56 Cloudy 70 21 N/A N/A VRB 6 9 29.96 1015 10 16 0.00 0.00
6:12 am 06:12 Mostly Cloudy 72 22 N/A N/A SSE 23 37 29.92 1013 10 16 0.00 0.00
6:30 am 06:30 Partly Cloudy 70 21 N/A N/A SSE 15 24 29.94 1014 10 16 0.00 0.00
6:56 am 06:56 Sunny 70 21 N/A N/A S 12 19 29.96 1015 10 16 0.00 0.00
7:51 am 07:51 Mostly Cloudy 72 22 N/A N/A VRB 6 9 29.95 1014 10 16 0.00 0.00
7:56 am 07:56 Mostly Cloudy 70 21 N/A N/A VRB 5 7 29.97 1015 10 16 0.00 0.00
8:39 am 08:39 Partly Cloudy 73 23 N/A N/A S 6 9 29.95 1014 10 16 0.00 0.00
8:56 am 08:56 Sunny 73 23 N/A N/A SSW 7 11 29.97 1015 10 16 0.00 0.00
9:56 am 09:56 Sunny 81 27 N/A N/A SW 12 19 29.93 1013 10 16 0.00 0.00
10:40 am 10:40 Mostly Cloudy 82 28 82 28 100 100 WSW 12 19 29.91 1013 9 14 0.00 0.00
10:56 am 10:56 Partly Cloudy 85 29.4 81 27.2 88 88 W 15 24 29.91 1013 10 16 0.00 0.00
11:56 am 11:56 Mostly Sunny 87 30.6 83 28.3 88 88 WSW 12 19 29.90 1013 9 14 0.00 0.00
12:56 pm 12:56 Mostly Sunny 90 32.2 82 27.8 78 78 W 14 22 29.94 1014 10 16 0.00 0.00
1:56 pm 13:56 Sunny 91 32.8 80 26.7 70 70 W 12 19 29.93 1014 9 14 0.00 0.00
2:56 pm 14:56 Sunny 93 33.9 79 26.1 64 64 WSW 10 17 29.93 1014 10 16 0.00 0.00
3:56 pm 15:56 Mostly Sunny 94 34.4 79 26.1 62 62 WSW 10 17 29.92 1013 10 16 0.00 0.00
4:56 pm 16:56 Sunny 94 34.4 77 25 58 58 SW 8 13 29.92 1013 10 16 0.00 0.00
5:56 pm 17:56 Sunny 94 34.4 76 24.4 56 56 WSW 9 15 29.91 1013 10 16 0.00 0.00
6:56 pm 18:56 Sunny 93 33.9 76 24.4 58 58 W 9 15 29.91 1013 10 16 0.00 0.00
7:56 pm 19:56 Sunny 91 32.8 76 24.4 61 61 SW 7 11 29.92 1013 10 16 0.00 0.00
8:56 pm 20:56 Sunny 85 29.4 77 25 77 77 SW 5 7 29.93 1014 10 16 0.00 0.00
9:56 pm 21:56 Clear 83 28.3 77 25 82 82 SW 3 6 29.95 1014 10 16 0.00 0.00
10:56 pm 22:56 Clear 82 27.8 77 25 85 85 SSW 5 7 29.95 1014 10 16 0.00 0.00
11:56 pm 23:56 Clear 80 26.7 80 26.7 100 100 SW 3 6 29.96 1014 10 16 0.00 0.00

Powered by AerisWeather